DW9711 Weather Reports


time (UTC)temp
C
wind
direction
speed
KPH
gust
KPH
rain 1hr
cm
rain 24hr
cm
rain mn
cm
humidity
%
barometer
mb
20260504151026 22 188 6.4 19.3 0.00 0.00 0.00 53 1010.1
20260504150528 22 199 4.8 19.3 0.00 0.00 0.00 56 1010.2
20260504141017 20 164 8.0 17.7 0.00 0.00 0.00 59 1010.6
20260504140511 20 223 6.4 17.7 0.00 0.00 0.00 59 1010.5
20260504130559 18 232 8.0 19.3 0.00 0.00 0.00 64 1010.5
20260504110538 15 214 6.4 12.9 0.00 0.00 0.00 66 1009.9
20260504100532 16 195 6.4 17.7 0.00 0.00 0.00 61 1009.9
20260504081526 16 202 8.0 17.7 0.00 0.00 0.00 57 1010.0
20260504081028 16 194 8.0 14.5 0.00 0.00 0.00 57 1010.0
20260504080525 16 202 6.4 12.9 0.00 0.00 0.00 57 1010.0
20260504050502 16 204 6.4 12.9 0.00 0.00 0.00 53 1011.6
20260504050002 16 181 6.4 16.1 0.00 0.00 0.00 52 1011.6
20260504045600 16 214 6.4 16.1 0.00 0.00 0.00 52 1011.5
20260504045101 16 200 8.0 16.1 0.00 0.00 0.00 52 1011.6
20260504044559 16 202 6.4 14.5 0.00 0.00 0.00 52 1011.7
20260504044100 16 189 6.4 14.5 0.00 0.00 0.00 52 1011.8
20260504043602 16 194 8.0 14.5 0.00 0.00 0.00 52 1011.8
20260504043105 16 169 6.4 14.5 0.00 0.00 0.00 52 1011.9
20260504042558 16 194 6.4 14.5 0.00 0.00 0.00 52 1011.9
20260504042057 16 190 6.4 14.5 0.00 0.00 0.00 52 1011.9
20260504041600 16 203 6.4 14.5 0.00 0.00 0.00 52 1012.0
20260504041100 16 197 8.0 14.5 0.00 0.00 0.00 51 1012.0
20260504040556 16 192 8.0 14.5 0.00 0.00 0.00 51 1012.0
20260504040056 16 167 4.8 12.9 0.00 0.00 0.00 51 1012.1
20260504035556 16 171 6.4 12.9 0.00 0.00 0.00 51 1012.1
20260504035057 16 211 6.4 11.3 0.00 0.00 0.00 51 1012.2
20260504034611 16 192 6.4 11.3 0.00 0.00 0.00 50 1012.2
20260504034055 16 182 4.8 11.3 0.00 0.00 0.00 50 1012.2
20260504033558 16 191 6.4 11.3 0.00 0.00 0.00 50 1012.3
20260504033100 16 172 6.4 11.3 0.00 0.00 0.00 49 1012.3
20260504032555 16 195 6.4 14.5 0.00 0.00 0.00 49 1012.3
20260504032055 16 167 6.4 14.5 0.00 0.00 0.00 48 1012.4
20260504031606 16 195 6.4 12.9 0.00 0.00 0.00 48 1012.4
20260504031054 16 180 4.8 16.1 0.00 0.00 0.00 48 1012.4
20260504030554 16 169 8.0 12.9 0.00 0.00 0.00 48 1012.4
20260504030113 16 167 6.4 12.9 0.00 0.00 0.00 48 1012.4
20260504025554 16 192 6.4 12.9 0.00 0.00 0.00 48 1012.3
20260504025057 17 171 6.4 12.9 0.00 0.00 0.00 48 1012.3
20260504024554 16 191 6.4 11.3 0.00 0.00 0.00 48 1012.2
20260504024055 17 183 4.8 9.7 0.00 0.00 0.00 48 1012.3
20260504023553 17 186 4.8 11.3 0.00 0.00 0.00 48 1012.2
20260504023053 16 198 4.8 11.3 0.00 0.00 0.00 48 1012.3
20260504022552 16 190 4.8 11.3 0.00 0.00 0.00 48 1012.3
20260504022054 16 182 6.4 12.9 0.00 0.00 0.00 48 1012.2
20260504021600 16 186 6.4 12.9 0.00 0.00 0.00 48 1012.1
20260504021054 16 187 6.4 11.3 0.00 0.00 0.00 48 1012.2
20260504020553 16 177 4.8 9.7 0.00 0.00 0.00 48 1012.3
20260504020053 17 165 4.8 6.4 0.00 0.00 0.00 47 1012.4
20260504015552 17 180 3.2 8.0 0.00 0.00 0.00 47 1012.3
20260504015051 17 175 3.2 8.0 0.00 0.00 0.00 47 1012.3
20260504014552 17 180 3.2 6.4 0.00 0.00 0.00 46 1012.3
20260504014052 17 180 4.8 6.4 0.00 0.00 0.00 45 1012.3
20260504013551 17 175 3.2 6.4 0.00 0.00 0.00 45 1012.3
20260504013051 17 173 3.2 6.4 0.00 0.00 0.00 44 1012.4
20260504012552 17 184 3.2 8.0 0.00 0.00 0.00 44 1012.3
20260504012052 18 185 4.8 6.4 0.00 0.00 0.00 44 1012.3
20260504011552 18 186 3.2 9.7 0.00 0.00 0.00 43 1012.3
20260504011051 18 181 4.8 9.7 0.00 0.00 0.00 42 1012.3
20260504010551 18 181 4.8 8.0 0.00 0.00 0.00 42 1012.2
20260504010051 18 184 3.2 9.7 0.00 0.00 0.00 42 1012.2
20260504005551 18 185 4.8 9.7 0.00 0.00 0.00 41 1012.1
20260504005050 18 175 4.8 9.7 0.00 0.00 0.00 41 1012.1
20260504004551 18 187 4.8 11.3 0.00 0.00 0.00 40 1012.1
20260504004049 19 186 4.8 11.3 0.00 0.00 0.00 41 1012.1
20260504003549 19 210 4.8 9.7 0.00 0.00 0.00 40 1012.1
20260504003049 19 186 4.8 11.3 0.00 0.00 0.00 39 1012.2
20260504002549 20 199 4.8 11.3 0.00 0.00 0.00 39 1012.2
20260504002048 20 178 6.4 12.9 0.00 0.00 0.00 38 1012.3
20260504001550 20 187 6.4 12.9 0.00 0.00 0.00 38 1012.3
20260504001047 20 169 6.4 14.5 0.00 0.00 0.00 38 1012.4
20260504000547 20 200 6.4 16.1 0.00 0.00 0.00 38 1012.4
20260504000111 20 191 6.4 16.1 0.00 0.00 0.00 37 1012.5
20260503235546 20 225 6.4 14.5 0.00 0.00 0.00 37 1012.5
20260503235046 20 209 6.4 14.5 0.00 0.00 0.00 37 1012.5
20260503234545 20 194 6.4 19.3 0.00 0.00 0.00 37 1012.5
20260503234045 20 194 8.0 17.7 0.00 0.00 0.00 37 1012.6
20260503233544 20 235 4.8 14.5 0.00 0.00 0.00 37 1012.6
20260503233044 21 187 8.0 16.1 0.00 0.00 0.00 37 1012.7
20260503232547 21 180 8.0 17.7 0.00 0.00 0.00 36 1012.7
20260503232044 21 191 11.3 17.7 0.00 0.00 0.00 35 1012.7
20260503231543 21 208 9.7 19.3 0.00 0.00 0.00 36 1012.7
20260503231042 21 192 9.7 20.9 0.00 0.00 0.00 35 1012.9
20260503230541 21 236 8.0 19.3 0.00 0.00 0.00 35 1013.0
20260503230044 21 200 9.7 19.3 0.00 0.00 0.00 35 1013.1
20260503225540 21 208 3.2 20.9 0.00 0.00 0.00 35 1013.2
20260503225042 21 184 8.0 20.9 0.00 0.00 0.00 35 1013.2
20260503224538 21 193 8.0 19.3 0.00 0.00 0.00 36 1013.2
20260503224040 21 226 9.7 17.7 0.00 0.00 0.00 35 1013.3
20260503223538 21 229 8.0 20.9 0.00 0.00 0.00 36 1013.3
20260503223038 21 193 11.3 20.9 0.00 0.00 0.00 35 1013.4
20260503222537 21 209 8.0 19.3 0.00 0.00 0.00 36 1013.4
20260503222036 21 242 6.4 19.3 0.00 0.00 0.00 36 1013.4
20260503221539 21 232 8.0 24.1 0.00 0.00 0.00 34 1013.5
20260503221037 21 202 8.0 27.4 0.00 0.00 0.00 34 1013.6
20260503220536 21 236 9.7 27.4 0.00 0.00 0.00 35 1013.7
20260503220036 21 189 8.0 17.7 0.00 0.00 0.00 34 1013.6
20260503215535 21 203 8.0 17.7 0.00 0.00 0.00 36 1013.6
20260503215037 21 186 6.4 22.5 0.00 0.00 0.00 35 1013.7
20260503214533 21 185 11.3 22.5 0.00 0.00 0.00 34 1013.9
20260503214032 21 224 8.0 20.9 0.00 0.00 0.00 36 1014.1
20260503213532 21 183 9.7 20.9 0.00 0.00 0.00 36 1014.1
20260503213033 21 190 9.7 24.1 0.00 0.00 0.00 35 1014.2
20260503212534 21 192 11.3 24.1 0.00 0.00 0.00 35 1014.3
20260503212030 21 224 9.7 24.1 0.00 0.00 0.00 36 1014.4
20260503211531 21 123 8.0 16.1 0.00 0.00 0.00 35 1014.5
20260503211029 21 195 6.4 16.1 0.00 0.00 0.00 37 1014.6
20260503210529 21 232 9.7 17.7 0.00 0.00 0.00 35 1014.7
20260503210028 21 186 9.7 17.7 0.00 0.00 0.00 37 1014.8
20260503205526 21 202 6.4 17.7 0.00 0.00 0.00 38 1014.9
20260503205025 21 223 6.4 19.3 0.00 0.00 0.00 36 1015.1
20260503204524 20 212 6.4 20.9 0.00 0.00 0.00 37 1015.1
20260503204023 20 216 8.0 20.9 0.00 0.00 0.00 37 1015.3